• In Deutschland
  • Länderverzeichnis
  • Für 7 Tage
  • Wassertemperatur
  • Satellitenkarten
  • Wetterkarte
  • Widgets
  • user-avatar
    Anmelden

    Stündliche Wetter Bad Vilbel

    Heute, 11 Dezember, Montag

    Zeit Temperatur Niederschläge Wind Luftdruck Luftfeuchtigkeit
    00:00 +4°C° 0,6 mm 6 m/S 725 mmHg 90%
    01:00 +5°C° 0 mm 4 m/S 726 mmHg 89%
    02:00 +4°C° 0,1 mm 4 m/S 726 mmHg 91%
    03:00 +4°C° 0,1 mm 3 m/S 726 mmHg 93%
    04:00 +4°C° 0,1 mm 2 m/S 727 mmHg 94%
    05:00 +4°C° 0,1 mm 2 m/S 727 mmHg 95%
    06:00 +4°C° 0,1 mm 2 m/S 726 mmHg 96%
    07:00 +5°C° 0 mm 1 m/S 726 mmHg 97%
    08:00 +4°C° 1,9 mm 2 m/S 726 mmHg 96%
    09:00 +3°C° 1,9 mm 3 m/S 725 mmHg 96%
    10:00 +4°C° 1,9 mm 4 m/S 725 mmHg 96%
    11:00 +4°C° 2,4 mm 4 m/S 725 mmHg 94%
    12:00 +4°C° 2,4 mm 4 m/S 724 mmHg 93%
    13:00 +4°C° 2,4 mm 4 m/S 724 mmHg 91%
    14:00 +4°C° 0,8 mm 4 m/S 724 mmHg 92%
    15:00 +4°C° 0,8 mm 3 m/S 724 mmHg 93%
    16:00 +4°C° 0,8 mm 3 m/S 725 mmHg 94%
    17:00 +4°C° 0,3 mm 3 m/S 725 mmHg 93%
    18:00 +4°C° 0,3 mm 3 m/S 725 mmHg 92%
    19:00 +5°C° 0,3 mm 4 m/S 725 mmHg 92%
    20:00 +5°C° 0,1 mm 4 m/S 726 mmHg 89%
    21:00 +5°C° 0,1 mm 4 m/S 726 mmHg 86%
    22:00 +5°C° 0,1 mm 5 m/S 726 mmHg 83%
    23:00 +5°C° 0,1 mm 5 m/S 727 mmHg 81%

    Morgen, 12 Dezember, Dienstag

    Zeit Temperatur Niederschläge Wind Luftdruck Luftfeuchtigkeit
    00:00 +4°C° 0,1 mm 6 m/S 727 mmHg 80%
    01:00 +4°C° 0,1 mm 6 m/S 727 mmHg 78%
    02:00 +3°C° 0 mm 7 m/S 729 mmHg 78%
    03:00 +3°C° 0 mm 7 m/S 730 mmHg 78%
    04:00 +1°C° 0 mm 8 m/S 731 mmHg 78%
    05:00 +1°C° 0 mm 8 m/S 733 mmHg 78%
    06:00 +2°C° 0 mm 7 m/S 735 mmHg 79%
    07:00 0°C° 0 mm 7 m/S 736 mmHg 79%
    08:00 +1°C° 0 mm 6 m/S 738 mmHg 78%
    09:00 +1°C° 0 mm 6 m/S 740 mmHg 77%
    10:00 +1°C° 0 mm 6 m/S 742 mmHg 76%
    11:00 +1°C° 0 mm 6 m/S 742 mmHg 75%
    12:00 +2°C° 0 mm 6 m/S 743 mmHg 74%
    13:00 +2°C° 0 mm 6 m/S 744 mmHg 73%
    14:00 +2°C° 0,1 mm 5 m/S 745 mmHg 74%
    15:00 +2°C° 0,1 mm 5 m/S 746 mmHg 76%
    16:00 +1°C° 0,1 mm 4 m/S 747 mmHg 78%
    17:00 +1°C° 0 mm 4 m/S 747 mmHg 80%
    18:00 0°C° 0 mm 4 m/S 748 mmHg 82%
    19:00 0°C° 0 mm 4 m/S 749 mmHg 84%
    20:00 +1°C° 0 mm 3 m/S 750 mmHg 85%
    21:00 0°C° 0 mm 3 m/S 750 mmHg 86%
    22:00 0°C° 0 mm 3 m/S 751 mmHg 87%
    23:00 0°C° 0 mm 3 m/S 751 mmHg 88%

    übermorgen, 13 Dezember, Mittwoch

    Zeit Temperatur Niederschläge Wind Luftdruck Luftfeuchtigkeit
    00:00 0°C° 0 mm 3 m/S 751 mmHg 88%
    01:00 0°C° 0 mm 3 m/S 751 mmHg 89%
    02:00 -1°C° 0 mm 3 m/S 751 mmHg 89%
    03:00 -1°C° 0 mm 3 m/S 751 mmHg 89%
    04:00 -2°C° 0 mm 4 m/S 750 mmHg 89%
    05:00 -1°C° 0 mm 4 m/S 750 mmHg 88%
    06:00 -1°C° 0 mm 5 m/S 749 mmHg 87%
    07:00 -1°C° 0 mm 5 m/S 749 mmHg 85%
    08:00 0°C° 0 mm 5 m/S 748 mmHg 82%
    09:00 -1°C° 0 mm 6 m/S 748 mmHg 80%
    10:00 +1°C° 0 mm 6 m/S 747 mmHg 77%
    11:00 0°C° 0,3 mm 7 m/S 746 mmHg 76%
    12:00 +2°C° 0,3 mm 7 m/S 745 mmHg 75%
    13:00 +2°C° 0,3 mm 7 m/S 745 mmHg 74%
    14:00 +2°C° 0,9 mm 7 m/S 744 mmHg 77%
    15:00 +2°C° 0,9 mm 6 m/S 743 mmHg 80%
    16:00 +2°C° 0,9 mm 6 m/S 743 mmHg 82%
    17:00 +3°C° 0,4 mm 6 m/S 742 mmHg 83%
    18:00 +3°C° 0,4 mm 6 m/S 742 mmHg 85%
    19:00 +3°C° 0,4 mm 6 m/S 741 mmHg 86%
    20:00 +3°C° 0,1 mm 6 m/S 741 mmHg 86%
    21:00 +4°C° 0,1 mm 6 m/S 740 mmHg 86%
    22:00 +4°C° 0,1 mm 6 m/S 739 mmHg 86%
    23:00 +4°C° 0,2 mm 6 m/S 738 mmHg 86%

    14 Dezember, Donnerstag

    Zeit Temperatur Niederschläge Wind Luftdruck Luftfeuchtigkeit
    00:00 +4°C° 0,2 mm 6 m/S 737 mmHg 85%
    01:00 +4°C° 0,2 mm 7 m/S 737 mmHg 85%
    02:00 +5°C° 0,5 mm 6 m/S 736 mmHg 86%
    03:00 +5°C° 0,5 mm 6 m/S 736 mmHg 87%
    04:00 +5°C° 0,5 mm 6 m/S 736 mmHg 88%
    05:00 +6°C° 0,1 mm 5 m/S 736 mmHg 87%
    06:00 +5°C° 0,1 mm 5 m/S 736 mmHg 85%
    07:00 +3°C° 0,1 mm 5 m/S 736 mmHg 84%
    08:00 +3°C° 0,6 mm 5 m/S 736 mmHg 83%
    09:00 +3°C° 0,6 mm 5 m/S 736 mmHg 82%
    10:00 +3°C° 0,6 mm 6 m/S 736 mmHg 81%
    11:00 +3°C° 1,6 mm 5 m/S 736 mmHg 81%
    12:00 +3°C° 1,6 mm 4 m/S 735 mmHg 81%
    13:00 +3°C° 1,6 mm 3 m/S 735 mmHg 82%
    14:00 +3°C° 0,7 mm 3 m/S 735 mmHg 84%
    15:00 +2°C° 0,7 mm 3 m/S 734 mmHg 86%
    16:00 +2°C° 0,7 mm 3 m/S 734 mmHg 88%
    17:00 +2°C° 0,4 mm 3 m/S 734 mmHg 88%
    18:00 +2°C° 0,4 mm 3 m/S 735 mmHg 89%
    19:00 +2°C° 0,4 mm 3 m/S 735 mmHg 89%
    20:00 +2°C° 0,1 mm 3 m/S 735 mmHg 88%
    21:00 +2°C° 0,1 mm 3 m/S 735 mmHg 86%
    22:00 +2°C° 0,1 mm 3 m/S 735 mmHg 84%
    23:00 +1°C° 0 mm 3 m/S 736 mmHg 85%

    15 Dezember, Freitag

    Zeit Temperatur Niederschläge Wind Luftdruck Luftfeuchtigkeit
    00:00 +1°C° 0 mm 3 m/S 736 mmHg 85%
    01:00 +1°C° 0 mm 3 m/S 736 mmHg 86%
    02:00 0°C° 0 mm 3 m/S 736 mmHg 87%
    03:00 0°C° 0 mm 3 m/S 737 mmHg 87%
    04:00 0°C° 0 mm 3 m/S 737 mmHg 88%
    05:00 -1°C° 0 mm 4 m/S 737 mmHg 88%
    06:00 -1°C° 0 mm 4 m/S 737 mmHg 89%
    07:00 -1°C° 0 mm 4 m/S 737 mmHg 89%
    08:00 0°C° 0,1 mm 5 m/S 737 mmHg 87%
    09:00 0°C° 0,1 mm 5 m/S 737 mmHg 86%
    10:00 +1°C° 0,1 mm 6 m/S 737 mmHg 84%
    11:00 +1°C° 0,1 mm 6 m/S 737 mmHg 83%
    12:00 +1°C° 0,1 mm 6 m/S 736 mmHg 82%
    13:00 +2°C° 0,1 mm 6 m/S 736 mmHg 81%
    14:00 +2°C° 0,3 mm 6 m/S 736 mmHg 82%
    15:00 +2°C° 0,3 mm 5 m/S 736 mmHg 82%
    16:00 +2°C° 0,3 mm 5 m/S 736 mmHg 83%
    17:00 +1°C° 0,3 mm 5 m/S 737 mmHg 84%
    18:00 +1°C° 0,3 mm 4 m/S 738 mmHg 85%
    19:00 +1°C° 0,3 mm 4 m/S 738 mmHg 86%
    20:00 +1°C° 0 mm 4 m/S 739 mmHg 86%
    21:00 0°C° 0 mm 4 m/S 740 mmHg 85%
    22:00 0°C° 0 mm 4 m/S 741 mmHg 85%
    23:00 -1°C° 0 mm 4 m/S 741 mmHg 86%

    16 Dezember, Samstag

    Zeit Temperatur Niederschläge Wind Luftdruck Luftfeuchtigkeit
    00:00 -1°C° 0 mm 4 m/S 742 mmHg 87%
    01:00 -1°C° 0 mm 4 m/S 742 mmHg 88%
    02:00 -1°C° 0 mm 4 m/S 743 mmHg 88%
    03:00 0°C° 0 mm 4 m/S 743 mmHg 89%
    04:00 0°C° 0 mm 4 m/S 744 mmHg 89%
    05:00 0°C° 0,2 mm 4 m/S 744 mmHg 88%
    06:00 0°C° 0,2 mm 4 m/S 744 mmHg 87%
    07:00 0°C° 0,2 mm 4 m/S 745 mmHg 86%
    08:00 0°C° 0 mm 4 m/S 746 mmHg 86%
    09:00 0°C° 0 mm 5 m/S 746 mmHg 85%
    10:00 0°C° 0 mm 5 m/S 747 mmHg 84%
    11:00 0°C° 0,3 mm 5 m/S 747 mmHg 84%
    12:00 0°C° 0,3 mm 5 m/S 747 mmHg 84%
    13:00 0°C° 0,3 mm 5 m/S 748 mmHg 85%
    14:00 0°C° 0,2 mm 4 m/S 748 mmHg 84%
    15:00 0°C° 0,2 mm 4 m/S 748 mmHg 82%
    16:00 0°C° 0,2 mm 4 m/S 748 mmHg 81%
    17:00 0°C° 0 mm 4 m/S 749 mmHg 82%
    18:00 0°C° 0 mm 3 m/S 749 mmHg 84%
    19:00 0°C° 0 mm 3 m/S 749 mmHg 85%
    20:00 -1°C° 0 mm 3 m/S 750 mmHg 86%
    21:00 -1°C° 0 mm 3 m/S 750 mmHg 87%
    22:00 -1°C° 0 mm 3 m/S 750 mmHg 87%
    23:00 -2°C° 0 mm 2 m/S 750 mmHg 89%
    Mehr zeigen